Погода в Йоэнсуу

Финляндия     62°36′19″N   29°45′06″E
темп.,
°C
ветер,
м/с
пор.,
м/с
влажн.,
%
обл.,
%
осадки,
мм/ч
давл.,
гПа
погр.,
м
11 мая, вт
вт1100:00+7ю4109792 0.1 1017185
03:00+7ю51397100 0.1 1018282
06:00+8ю5139783 0.0 1018279
09:00+9ю5119473 0.0 1019284
12:00+12ю6138461 0.0 1020449
15:00+14ююз6127240 0.0 1020663
18:00+13ююз51273100 0.0 1021457
21:00+11ююз41182100 0.0 1021186
12 мая, ср
ср1200:00+9ююз4108826 0.0 1022151
03:00+8ю38895 0.0 1023130
06:00+8ю37890 0.0 1024123
09:00+11ю47770 0.0 1024198
12:00+14ю48580 0.0 1023439
15:00+17ю57512 0.0 1023641
18:00+16ююв47560 0.0 1022366
21:00+11ююв35715 0.0 102274
13 мая, чт
чт1300:00+9ююв24820 0.0 102256
03:00+9ююв22850 0.0 102121
06:00+10вюв23845 0.0 102064
09:00+14ююв36720 0.0 1020272
12:00+16ююв58645 0.0 1019698
15:00+16ююв58515 0.0 1018732
18:00+15ююв47465 0.0 1017511
21:00+12в11595 0.0 101610
14 мая, пт
пт1400:00+11всв226828 0.0 101521
03:00+11юв358055 0.0 1014102
06:00+10ююв249786 0.3 1014114
09:00+10ю358642 0.3 1014236
12:00+12юз356741 0.0 1014576
15:00+15ююз355015 0.0 1013789
18:00+15ю455332 0.0 1012607
21:00+12ю227059 0.0 101139
15 мая, сб
сб1500:00+10ююв227816 0.0 101222
03:00+9вюв22791 0.0 101116
06:00+9в24785 0.0 101079
09:00+13юв24635 0.0 1009295
12:00+16ююв245264 0.0 1008953
15:00+15в346317 0.1 1009760
18:00
21:00+12вюв2594100 4.4 100399